Fort Knox, KY

3:31 PM EDT on July 26, 2017 (GMT -0400)
Godman Army Air Field

Weather History for KFTK - October, 2013

Change the Weather History Date:

Monday, October 28, 2013

  Actual Average Record
Temperature  
Mean Temperature 54 °F -  
Max Temperature 65 °F 63 °F 80 °F (1999)
Min Temperature 43 °F 43 °F 26 °F (1997)
Degree Days  
Heating Degree Days 11    
Growing Degree Days 4 (Base 50)    
Moisture  
Dew Point 41 °F    
Average Humidity 68    
Maximum Humidity 94    
Minimum Humidity 41    
Precipitation  
Precipitation 0.00 in - - ()
Sea Level Pressure  
Sea Level Pressure 30.19 in    
Wind  
Wind Speed 1 mph (NE)    
Max Wind Speed 7 mph    
Max Gust Speed -    
Visibility 10 miles    
Events      
Averages and records for this station are not official NWS values.
T = Trace of Precipitation, MM = Missing Value Source: NWS Daily Summary

Daily Weather History Graph

Daily Weather History Graph

Search for Another Location

Airport or City:

Trip Planner

Search our weather history database for the weather conditions in past years. The results will help you decide how hot, cold, wet, or windy it might be!

Date:

Astronomy

Oct. 28, 2013 Rise Set
Actual Time 8:05 AM EDT 6:49 PM EDT
Civil Twilight 7:38 AM EDT 7:16 PM EDT
Nautical Twilight 7:07 AM EDT 7:47 PM EDT
Astronomical Twilight 6:37 AM EDT 8:17 PM EDT
Moon 2:03 AM EDT (10/28) 3:25 PM EDT (10/28)
Length of Visible Light 11h 37m
Length of Day
10h 43m
Waning Crescent, 34% of the Moon is Illuminated
Oct 28
Waning Crescent
Nov 3
New
Nov 10
First Quarter
Nov 17
Full
Nov 25
Last Quarter

Hourly Weather History & Observations

Time (EDT) Temp. Dew Point Humidity Pressure Visibility Wind Dir Wind Speed Gust Speed Precip Events Conditions
12:58 AM 45.3 °F 42.4 °F 90% 30.09 in 10.0 mi Calm Calm - N/A   Overcast
1:58 AM 46.2 °F 42.8 °F 88% 30.09 in 10.0 mi Calm Calm - N/A   Overcast
2:58 AM 47.1 °F 41.2 °F 80% 30.10 in 10.0 mi Calm Calm - N/A   Mostly Cloudy
3:58 AM 47.5 °F 40.6 °F 77% 30.11 in 10.0 mi Calm Calm - N/A   Overcast
4:58 AM 48.7 °F 39.2 °F 70% 30.11 in 10.0 mi Calm Calm - N/A   Overcast
5:58 AM 47.8 °F 39.4 °F 72% 30.13 in 10.0 mi Calm Calm - N/A   Overcast
6:58 AM 47.8 °F 38.8 °F 71% 30.14 in 10.0 mi Calm Calm - N/A   Overcast
7:58 AM 46.4 °F 40.5 °F 80% 30.17 in 10.0 mi Calm Calm - N/A   Overcast
8:58 AM 47.1 °F 39.6 °F 75% 30.20 in 10.0 mi Calm Calm - N/A   Overcast
9:58 AM 49.1 °F 41.0 °F 74% 30.22 in 10.0 mi Calm Calm - N/A   Overcast
10:58 AM 51.8 °F 40.3 °F 65% 30.23 in 10.0 mi NNE 1.2 mph - N/A   Mostly Cloudy
11:58 AM 54.5 °F 38.7 °F 55% 30.24 in 10.0 mi ENE 4.6 mph - N/A   Mostly Cloudy
12:58 PM 55.9 °F 38.5 °F 52% 30.24 in 10.0 mi Calm Calm - N/A   Mostly Cloudy
1:58 PM 61.5 °F 37.4 °F 41% 30.20 in 10.0 mi East 6.9 mph - N/A   Clear
2:58 PM 63.1 °F 39.4 °F 42% 30.18 in 10.0 mi Variable 1.2 mph - N/A   Clear
3:58 PM 64.4 °F 40.8 °F 42% 30.18 in 10.0 mi Variable 1.2 mph - N/A   Clear
4:58 PM 64.8 °F 40.8 °F 42% 30.19 in 10.0 mi SW 2.3 mph - N/A   Clear
5:58 PM 63.7 °F 42.6 °F 46% 30.20 in 10.0 mi North 3.5 mph - N/A   Clear
6:58 PM 55.0 °F 43.0 °F 64% 30.22 in 10.0 mi Calm Calm - N/A   Clear
7:58 PM 52.5 °F 41.9 °F 67% 30.24 in 10.0 mi Calm Calm - N/A   Clear
8:58 PM 49.3 °F 41.5 °F 75% 30.25 in 10.0 mi Calm Calm - N/A   Clear
9:58 PM 48.9 °F 42.3 °F 78% 30.26 in 10.0 mi Calm Calm - N/A   Clear
10:58 PM 44.4 °F 41.2 °F 88% 30.28 in 10.0 mi Calm Calm - N/A   Clear
11:58 PM 43.3 °F 41.7 °F 94% 30.29 in 10.0 mi Calm Calm - N/A   Clear